Flag for United Kingdom Weather past 2 weeks in Worcester, England, United Kingdom

Now
58 °F

Refreshingly cool.


Feels Like: 56 °F
Forecast: 43 / 63 °F
Wind: 10 mph from West

Location: Pershore

Current Time: Aug 23, 2014 at 1:32:37 PM

Latest Report: Aug 23, 2014 at 12:00 PM


Visibility: 22 mi

Pressure: 30.00 "Hg

Humidity: 58%

Dew point: 43 °F

Location of WorcesterLocation

Historic Weather in Worcester — Graph

°F

Worcester temperature yesterday

Maximum temperature yesterday: 64 °F (at 3:00 PM)
Minimum temperature yesterday: 47 °F (at 11:00 PM)
Average temperature yesterday: 56 °F

Past Weeks' High & Low Weather Summary

 TemperatureHumidityPressure
High73 °F (Aug 8, 2:00 PM)99% (Aug 10, 9:00 AM)30.19 "Hg (Aug 10, 9:00 AM)
Low40 °F (Aug 20, 6:00 AM)48% (Aug 20, 12:00 PM)29.29 "Hg (Aug 10, 12:00 PM)
Average58 °F76%29.84 "Hg
* Reported Aug 8 12:00 Noon — Aug 23 12:00 Noon, Worcester, Weather by CustomWeather, © 2014

Note: Actual official high and low records may vary slightly from our data, if they occured in-between our weather recording intervals... More about our weather records

Advertising

Worcester weather history for previous 24 hours

 ConditionsComfort  
Time TempWeatherWind HumidityBarometerVisibility
12:00 PM
Aug 23
58 °FRefreshingly cool.10 mph58%30.00 "Hg22 mi
11:00 AM59 °FRefreshingly cool.10 mph59%30.00 "Hg19 mi
10:00 AM58 °FCool.9 mph66%30.00 "Hg19 mi
9:00 AM55 °FCool.8 mph73%29.99 "Hg25 mi
8:00 AM51 °FCool.5 mph90%29.99 "Hg31 mi
7:00 AM47 °FCool.3 mph93%29.98 "Hg22 mi
6:00 AM46 °FCool.3 mph93%29.97 "Hg22 mi
5:00 AM47 °FCool.5 mph92%29.96 "Hg22 mi
4:00 AM46 °FCool.1 mph93%29.97 "Hg22 mi
3:00 AM46 °FCool.1 mph91%29.97 "Hg22 mi
2:00 AM47 °FCool.3 mph89%29.98 "Hg22 mi
1:00 AM47 °FCool.5 mph92%29.98 "Hg28 mi
12:00 AM47 °FCool.2 mph90%29.98 "Hg25 mi
11:00 PM
Aug 22
47 °FCool.2 mph89%29.97 "Hg25 mi
10:00 PM49 °FCool.2 mph91%29.97 "Hg25 mi
9:00 PM51 °FCool.3 mph86%29.95 "Hg25 mi
8:00 PM56 °FCool.5 mph73%29.94 "Hg17 mi
7:00 PM58 °FCool.10 mph63%29.93 "Hg22 mi
6:00 PM60 °FRefreshingly cool.8 mph58%29.91 "Hg28 mi
5:00 PM61 °FCool.12 mph60%29.90 "Hg28 mi
4:00 PM62 °FRefreshingly cool.9 mph56%29.90 "Hg31 mi
3:00 PM64 °FMild.10 mph53%29.89 "Hg31 mi
2:00 PM64 °FMild.9 mph56%29.89 "Hg14 mi
1:00 PM62 °FCool.9 mph61%29.88 "Hg22 mi
Weather by CustomWeather, © 2014

See weather overviewHow to use our weather pages